QPF
0.01 0.01 0.01 0.01 0.01 0.01 0.01 0.01 0.01 0.01 0.02 0.03 0.04 0.02 0.03 0.04 0.08 0.09 0.09 0.07 0.06 0.04 0.03 0.03 0.03 0.03 0.02 0.02 0.03 0.03 0.03 0.03 0.02 0.03 0.03 0.04 0.03 0.02 0.02 0.02 0.01 0.02 0.02 0.02
0.00 0.01 0.01 0.01 0.01 0.01 0.01 0.02 0.02 0.02 0.02 0.02 0.03 0.02 0.01 0.03 0.03 0.03 0.03 0.03 0.03 0.03 0.02 0.03 0.03 0.03 0.03 0.03 0.03 0.03 0.03 0.04 0.04 0.04 0.03 0.03 0.03 0.03 0.03 0.03 0.03 0.03 0.03 0.03
0.01 0.01 0.01 0.01 0.02 0.02 0.02 0.03 0.04 0.02 0.02 0.02 0.02 0.02 0.01 0.01 0.01 0.01 0.02 0.03 0.03 0.03 0.02 0.04 0.12 0.12 0.08 0.04 0.03 0.03 0.04 0.04 0.03 0.03 0.03 0.04 0.04 0.04 0.04 0.04 0.03 0.03 0.03 0.03
0.01 0.01 0.02 0.02 0.03 0.02 0.02 0.02 0.02 0.02 0.01 0.01 0.01 0.01 0.01 0.01 0.02 0.02 0.02 0.02 0.03 0.02 0.03 0.03 0.06 0.09 0.06 0.04 0.02 0.03 0.04 0.04 0.04 0.04 0.06 0.07 0.05 0.06 0.05 0.04 0.03 0.03 0.03 0.03
0.02 0.02 0.02 0.03 0.02 0.01 0.02 0.02 0.01 0.01 0.02 0.03 0.01 0.01 0.02 0.02 0.02 0.03 0.03 0.02 0.03 0.04 0.05 0.05 0.04 0.05 0.04 0.04 0.04 0.03 0.03 0.02 0.02 0.04 0.05 0.05 0.05 0.05 0.04 0.04 0.03 0.03 0.03 0.02
0.03 0.04 0.04 0.02 0.01 0.01 0.02 0.03 0.02 0.02 0.04 0.04 0.02 0.02 0.02 0.02 0.02 0.03 0.03 0.03 0.03 0.06 0.10 0.09 0.10 0.09 0.05 0.05 0.04 0.03 0.03 0.03 0.04 0.04 0.04 0.03 0.04 0.04 0.03 0.03 0.02 0.02 0.01 0.01
0.03 0.04 0.04 0.02 0.01 0.02 0.05 0.08 0.06 0.04 0.05 0.03 0.02 0.03 0.03 0.02 0.03 0.03 0.03 0.03 0.02 0.05 0.10 0.09 0.12 0.11 0.09 0.07 0.05 0.05 0.05 0.06 0.07 0.06 0.06 0.05 0.04 0.03 0.03 0.02 0.01 0.01 0.01 0.02
0.02 0.04 0.05 0.03 0.03 0.05 0.09 0.14 0.12 0.06 0.04 0.03 0.02 0.03 0.03 0.03 0.05 0.04 0.05 0.06 0.04 0.03 0.06 0.07 0.08 0.09 0.07 0.05 0.05 0.06 0.05 0.06 0.07 0.06 0.05 0.04 0.03 0.02 0.02 0.01 0.01 0.01 0.01 0.02
0.04 0.04 0.07 0.08 0.07 0.06 0.09 0.14 0.18 0.13 0.07 0.05 0.04 0.04 0.07 0.05 0.06 0.06 0.05 0.05 0.03 0.03 0.04 0.05 0.05 0.05 0.04 0.04 0.04 0.03 0.05 0.06 0.06 0.05 0.04 0.03 0.02 0.01 0.01 0.01 0.01 0.01 0.01 0.01
0.07 0.07 0.10 0.16 0.12 0.07 0.10 0.15 0.15 0.14 0.13 0.09 0.06 0.08 0.10 0.09 0.07 0.07 0.03 0.01 0.01 0.02 0.03 0.03 0.03 0.02 0.02 0.02 0.02 0.02 0.04 0.06 0.07 0.06 0.03 0.03 0.02 0.01 0.01 0.01 0.01 0.01 0.01 0.01
0.11 0.13 0.15 0.18 0.15 0.10 0.10 0.11 0.11 0.09 0.09 0.09 0.08 0.09 0.11 0.11 0.09 0.09 0.05 0.03 0.04 0.04 0.05 0.04 0.04 0.03 0.02 0.02 0.02 0.03 0.04 0.05 0.06 0.06 0.05 0.04 0.03 0.02 0.02 0.02 0.02 0.01 0.01 0.02
0.18 0.15 0.14 0.17 0.16 0.12 0.11 0.13 0.11 0.09 0.08 0.07 0.07 0.07 0.06 0.07 0.08 0.10 0.09 0.08 0.07 0.05 0.04 0.04 0.03 0.02 0.02 0.02 0.03 0.04 0.04 0.05 0.06 0.06 0.06 0.05 0.05 0.04 0.03 0.02 0.03 0.03 0.03 0.02
0.22 0.20 0.13 0.12 0.13 0.12 0.09 0.07 0.06 0.06 0.06 0.06 0.08 0.06 0.05 0.06 0.06 0.06 0.06 0.06 0.06 0.04 0.03 0.03 0.03 0.03 0.03 0.03 0.04 0.04 0.05 0.06 0.06 0.05 0.06 0.06 0.06 0.05 0.04 0.04 0.03 0.03 0.02 0.02
0.19 0.18 0.12 0.09 0.08 0.06 0.06 0.05 0.04 0.04 0.04 0.04 0.04 0.05 0.06 0.06 0.05 0.04 0.04 0.05 0.04 0.03 0.03 0.04 0.04 0.03 0.03 0.04 0.04 0.06 0.06 0.08 0.07 0.06 0.06 0.07 0.07 0.06 0.05 0.04 0.04 0.03 0.03 0.02
0.16 0.10 0.07 0.07 0.07 0.06 0.05 0.04 0.03 0.02 0.02 0.02 0.02 0.02 0.04 0.04 0.04 0.04 0.03 0.03 0.04 0.04 0.05 0.05 0.04 0.04 0.05 0.05 0.06 0.07 0.08 0.08 0.08 0.08 0.08 0.08 0.08 0.07 0.07 0.07 0.06 0.04 0.04 0.03
0.12 0.08 0.06 0.06 0.06 0.04 0.03 0.03 0.02 0.01 0.01 0.01 0.01 0.01 0.03 0.04 0.03 0.03 0.03 0.03 0.03 0.03 0.04 0.06 0.06 0.07 0.08 0.09 0.11 0.10 0.10 0.13 0.14 0.13 0.13 0.13 0.13 0.12 0.11 0.10 0.08 0.06 0.05 0.05
0.07 0.07 0.05 0.07 0.10 0.09 0.05 0.03 0.01 0.01 0.01 0.01 0.01 0.01 0.01 0.02 0.05 0.04 0.03 0.04 0.03 0.03 0.04 0.05 0.06 0.07 0.05 0.06 0.07 0.09 0.10 0.12 0.15 0.14 0.14 0.15 0.17 0.16 0.14 0.11 0.10 0.10 0.12 0.13
0.05 0.05 0.05 0.07 0.13 0.20 0.17 0.07 0.02 0.01 0.01 0.01 0.01 0.01 0.02 0.01 0.02 0.03 0.03 0.03 0.04 0.03 0.02 0.02 0.02 0.02 0.02 0.03 0.05 0.07 0.07 0.08 0.10 0.11 0.11 0.12 0.13 0.12 0.11 0.11 0.11 0.13 0.13 0.12
0.03 0.03 0.04 0.05 0.08 0.13 0.17 0.11 0.04 0.01 0.01 0.01 0.01 0.01 0.02 0.02 0.01 0.01 0.01 0.01 0.02 0.02 0.02 0.02 0.02 0.02 0.02 0.02 0.03 0.03 0.04 0.06 0.07 0.09 0.10 0.11 0.10 0.09 0.09 0.09 0.09 0.08 0.06 0.05
0.04 0.03 0.03 0.04 0.05 0.06 0.08 0.07 0.04 0.02 0.01 0.01 0.01 0.01 0.01 0.02 0.03 0.03 0.02 0.02 0.02 0.02 0.02 0.03 0.02 0.02 0.02 0.02 0.03 0.03 0.03 0.04 0.05 0.06 0.06 0.06 0.05 0.05 0.04 0.04 0.04 0.04 0.04 0.04
0.04 0.06 0.06 0.06 0.06 0.07 0.09 0.07 0.05 0.04 0.02 0.02 0.02 0.02 0.03 0.03 0.04 0.04 0.04 0.03 0.02 0.02 0.02 0.02 0.02 0.02 0.02 0.02 0.03 0.03 0.03 0.03 0.04 0.05 0.04 0.04 0.03 0.03 0.02 0.02 0.02 0.02 0.02 0.02
0.06 0.06 0.10 0.10 0.11 0.13 0.14 0.12 0.08 0.05 0.03 0.03 0.03 0.03 0.04 0.03 0.03 0.04 0.04 0.03 0.03 0.03 0.03 0.03 0.03 0.03 0.02 0.02 0.03 0.03 0.03 0.02 0.02 0.02 0.02 0.02 0.02 0.01 0.01 0.02 0.02 0.03 0.03 0.02
0.07 0.07 0.07 0.08 0.09 0.14 0.15 0.14 0.12 0.07 0.05 0.04 0.03 0.03 0.03 0.03 0.04 0.05 0.04 0.03 0.03 0.03 0.04 0.04 0.05 0.05 0.04 0.03 0.03 0.03 0.03 0.02 0.02 0.03 0.02 0.02 0.02 0.02 0.02 0.02 0.02 0.02 0.02 0.02
0.05 0.04 0.04 0.03 0.04 0.07 0.11 0.10 0.09 0.07 0.05 0.04 0.03 0.03 0.04 0.05 0.05 0.05 0.04 0.03 0.03 0.03 0.04 0.04 0.05 0.06 0.07 0.05 0.03 0.02 0.02 0.02 0.02 0.02 0.02 0.02 0.02 0.03 0.04 0.03 0.03 0.02 0.02 0.02
0.03 0.03 0.02 0.02 0.03 0.03 0.04 0.05 0.05 0.05 0.04 0.04 0.04 0.04 0.04 0.05 0.05 0.05 0.04 0.04 0.04 0.03 0.02 0.02 0.03 0.03 0.04 0.04 0.03 0.03 0.02 0.03 0.03 0.02 0.01 0.01 0.01 0.02 0.06 0.07 0.05 0.03 0.03 0.02
0.03 0.03 0.03 0.03 0.03 0.02 0.02 0.03 0.03 0.04 0.04 0.04 0.04 0.04 0.05 0.05 0.06 0.06 0.04 0.04 0.03 0.03 0.03 0.03 0.03 0.03 0.02 0.02 0.02 0.02 0.02 0.02 0.02 0.01 0.01 0.01 0.01 0.02 0.04 0.07 0.09 0.09 0.07 0.05
0.03 0.03 0.03 0.03 0.03 0.03 0.03 0.03 0.03 0.03 0.03 0.03 0.03 0.03 0.03 0.03 0.03 0.03 0.03 0.04 0.05 0.05 0.04 0.04 0.04 0.03 0.03 0.03 0.03 0.03 0.02 0.02 0.01 0.02 0.02 0.02 0.03 0.03 0.04 0.06 0.07 0.08 0.08 0.07
MSLP
1009.07 1009.04 1009.00 1008.94 1008.83 1008.64 1008.30 1007.79 1007.07 1006.14 1005.03 1003.80 1002.53 1001.33 1000.29 999.49 999.00 998.83 998.97 999.39 1000.02 1000.77 1001.58 1002.39 1003.15 1003.86 1004.51 1005.11 1005.70 1006.29 1006.91 1007.55 1008.20 1008.87 1009.51 1010.11 1010.66 1011.13 1011.54 1011.88 1012.17 1012.44 1012.68 1012.94
1009.33 1009.20 1009.03 1008.81 1008.52 1008.17 1007.72 1007.15 1006.45 1005.62 1004.67 1003.65 1002.60 1001.62 1000.75 1000.06 999.60 999.39 999.43 999.70 1000.16 1000.74 1001.41 1002.11 1002.81 1003.50 1004.16 1004.80 1005.42 1006.05 1006.69 1007.34 1008.01 1008.68 1009.32 1009.94 1010.51 1011.02 1011.46 1011.84 1012.17 1012.46 1012.73 1012.98
1009.44 1009.20 1008.89 1008.52 1008.10 1007.63 1007.11 1006.53 1005.88 1005.17 1004.39 1003.58 1002.75 1001.96 1001.24 1000.63 1000.18 999.92 999.84 999.95 1000.23 1000.65 1001.19 1001.79 1002.44 1003.11 1003.79 1004.47 1005.14 1005.81 1006.48 1007.15 1007.83 1008.49 1009.14 1009.77 1010.35 1010.89 1011.37 1011.79 1012.16 1012.48 1012.76 1013.02
1009.42 1009.05 1008.60 1008.10 1007.56 1007.00 1006.44 1005.87 1005.30 1004.71 1004.11 1003.48 1002.85 1002.22 1001.63 1001.09 1000.65 1000.33 1000.15 1000.13 1000.27 1000.56 1000.98 1001.51 1002.12 1002.79 1003.49 1004.21 1004.92 1005.63 1006.33 1007.01 1007.68 1008.34 1008.99 1009.61 1010.21 1010.76 1011.27 1011.73 1012.13 1012.48 1012.77 1013.03
1009.27 1008.76 1008.17 1007.54 1006.90 1006.27 1005.68 1005.14 1004.63 1004.16 1003.70 1003.25 1002.78 1002.31 1001.83 1001.37 1000.95 1000.61 1000.37 1000.27 1000.31 1000.51 1000.86 1001.35 1001.94 1002.61 1003.33 1004.07 1004.81 1005.54 1006.24 1006.93 1007.59 1008.23 1008.86 1009.47 1010.06 1010.62 1011.15 1011.63 1012.06 1012.43 1012.74 1013.00
1008.99 1008.33 1007.60 1006.85 1006.12 1005.43 1004.82 1004.30 1003.85 1003.48 1003.14 1002.83 1002.51 1002.17 1001.82 1001.45 1001.09 1000.77 1000.53 1000.41 1000.42 1000.58 1000.90 1001.36 1001.94 1002.60 1003.33 1004.07 1004.82 1005.53 1006.22 1006.88 1007.51 1008.11 1008.71 1009.30 1009.87 1010.44 1010.97 1011.46 1011.90 1012.29 1012.61 1012.87
1008.59 1007.79 1006.94 1006.08 1005.27 1004.53 1003.90 1003.39 1002.99 1002.68 1002.45 1002.25 1002.07 1001.87 1001.64 1001.38 1001.12 1000.88 1000.70 1000.60 1000.63 1000.80 1001.12 1001.57 1002.13 1002.78 1003.48 1004.20 1004.90 1005.58 1006.22 1006.82 1007.40 1007.96 1008.51 1009.06 1009.60 1010.15 1010.68 1011.17 1011.61 1012.00 1012.33 1012.60
1008.10 1007.18 1006.23 1005.30 1004.43 1003.66 1003.01 1002.51 1002.14 1001.89 1001.73 1001.63 1001.56 1001.49 1001.39 1001.27 1001.14 1001.02 1000.94 1000.92 1001.01 1001.21 1001.53 1001.97 1002.51 1003.11 1003.75 1004.39 1005.02 1005.62 1006.18 1006.71 1007.21 1007.71 1008.20 1008.70 1009.21 1009.73 1010.23 1010.71 1011.15 1011.54 1011.87 1012.14
1007.58 1006.58 1005.58 1004.61 1003.72 1002.94 1002.29 1001.80 1001.45 1001.24 1001.15 1001.13 1001.16 1001.20 1001.24 1001.26 1001.27 1001.29 1001.33 1001.41 1001.57 1001.81 1002.13 1002.54 1003.02 1003.54 1004.08 1004.62 1005.13 1005.62 1006.08 1006.51 1006.93 1007.34 1007.77 1008.22 1008.68 1009.16 1009.63 1010.08 1010.51 1010.88 1011.21 1011.48
1007.10 1006.09 1005.09 1004.13 1003.26 1002.50 1001.88 1001.41 1001.09 1000.92 1000.87 1000.91 1001.02 1001.16 1001.32 1001.47 1001.62 1001.77 1001.92 1002.10 1002.32 1002.58 1002.89 1003.24 1003.63 1004.03 1004.44 1004.83 1005.21 1005.56 1005.89 1006.22 1006.55 1006.88 1007.25 1007.63 1008.04 1008.47 1008.90 1009.32 1009.71 1010.06 1010.38 1010.65
1006.74 1005.78 1004.85 1003.96 1003.15 1002.45 1001.88 1001.46 1001.18 1001.04 1001.02 1001.11 1001.28 1001.49 1001.74 1002.00 1002.26 1002.51 1002.75 1003.00 1003.24 1003.49 1003.75 1004.02 1004.28 1004.55 1004.80 1005.03 1005.25 1005.46 1005.67 1005.88 1006.12 1006.38 1006.68 1007.00 1007.36 1007.73 1008.11 1008.47 1008.82 1009.15 1009.45 1009.72
1006.58 1005.73 1004.91 1004.13 1003.44 1002.84 1002.35 1001.99 1001.75 1001.65 1001.66 1001.78 1001.98 1002.24 1002.55 1002.87 1003.19 1003.50 1003.79 1004.06 1004.29 1004.50 1004.68 1004.84 1004.96 1005.07 1005.15 1005.23 1005.29 1005.37 1005.46 1005.57 1005.73 1005.92 1006.15 1006.42 1006.72 1007.03 1007.34 1007.66 1007.96 1008.24 1008.51 1008.77
1006.64 1005.93 1005.26 1004.64 1004.08 1003.60 1003.22 1002.93 1002.76 1002.69 1002.72 1002.86 1003.07 1003.35 1003.67 1004.01 1004.36 1004.68 1004.97 1005.22 1005.41 1005.55 1005.63 1005.66 1005.64 1005.59 1005.52 1005.45 1005.38 1005.33 1005.33 1005.36 1005.45 1005.58 1005.76 1005.97 1006.21 1006.46 1006.71 1006.95 1007.19 1007.43 1007.66 1007.90
1006.92 1006.36 1005.84 1005.38 1004.97 1004.63 1004.36 1004.17 1004.05 1004.03 1004.08 1004.22 1004.43 1004.70 1005.00 1005.33 1005.65 1005.95 1006.20 1006.39 1006.51 1006.56 1006.53 1006.44 1006.29 1006.11 1005.91 1005.71 1005.54 1005.41 1005.33 1005.30 1005.34 1005.42 1005.55 1005.71 1005.89 1006.07 1006.25 1006.42 1006.60 1006.77 1006.95 1007.15
1007.38 1006.95 1006.58 1006.26 1006.00 1005.78 1005.62 1005.52 1005.47 1005.48 1005.56 1005.70 1005.89 1006.13 1006.40 1006.68 1006.95 1007.18 1007.37 1007.49 1007.52 1007.48 1007.35 1007.15 1006.90 1006.61 1006.32 1006.04 1005.80 1005.60 1005.47 1005.41 1005.41 1005.45 1005.54 1005.65 1005.77 1005.88 1005.99 1006.08 1006.18 1006.28 1006.40 1006.55
1007.96 1007.64 1007.38 1007.17 1007.03 1006.92 1006.86 1006.84 1006.85 1006.90 1006.99 1007.13 1007.30 1007.50 1007.71 1007.93 1008.13 1008.30 1008.40 1008.44 1008.39 1008.26 1008.04 1007.76 1007.44 1007.09 1006.73 1006.40 1006.12 1005.90 1005.75 1005.66 1005.63 1005.64 1005.69 1005.75 1005.80 1005.85 1005.88 1005.89 1005.90 1005.92 1005.97 1006.05
1008.61 1008.35 1008.16 1008.04 1007.97 1007.95 1007.97 1008.01 1008.07 1008.15 1008.26 1008.39 1008.53 1008.69 1008.85 1009.00 1009.13 1009.22 1009.24 1009.20 1009.08 1008.88 1008.60 1008.27 1007.90 1007.52 1007.14 1006.79 1006.50 1006.26 1006.10 1005.99 1005.94 1005.92 1005.92 1005.93 1005.92 1005.89 1005.84 1005.78 1005.71 1005.65 1005.61 1005.61
1009.30 1009.06 1008.90 1008.82 1008.80 1008.84 1008.90 1008.98 1009.08 1009.19 1009.30 1009.42 1009.54 1009.66 1009.77 1009.86 1009.91 1009.93 1009.88 1009.77 1009.59 1009.34 1009.03 1008.67 1008.28 1007.89 1007.51 1007.16 1006.87 1006.63 1006.46 1006.34 1006.26 1006.21 1006.16 1006.11 1006.04 1005.94 1005.82 1005.67 1005.52 1005.37 1005.25 1005.16
1009.99 1009.75 1009.60 1009.53 1009.53 1009.59 1009.67 1009.78 1009.90 1010.02 1010.13 1010.24 1010.33 1010.41 1010.47 1010.50 1010.50 1010.45 1010.34 1010.18 1009.96 1009.67 1009.34 1008.97 1008.58 1008.20 1007.82 1007.49 1007.20 1006.96 1006.78 1006.64 1006.53 1006.43 1006.34 1006.23 1006.09 1005.92 1005.72 1005.50 1005.27 1005.05 1004.84 1004.67
1010.69 1010.44 1010.28 1010.21 1010.21 1010.27 1010.36 1010.47 1010.59 1010.71 1010.81 1010.90 1010.96 1011.00 1011.02 1011.00 1010.94 1010.84 1010.68 1010.48 1010.22 1009.92 1009.58 1009.21 1008.83 1008.45 1008.09 1007.76 1007.48 1007.23 1007.03 1006.86 1006.71 1006.57 1006.42 1006.24 1006.04 1005.81 1005.55 1005.27 1004.97 1004.67 1004.39 1004.14
1011.40 1011.15 1010.98 1010.90 1010.89 1010.94 1011.02 1011.12 1011.23 1011.33 1011.42 1011.48 1011.51 1011.51 1011.48 1011.41 1011.30 1011.15 1010.96 1010.72 1010.44 1010.13 1009.78 1009.42 1009.04 1008.68 1008.32 1008.00 1007.70 1007.44 1007.21 1007.01 1006.81 1006.62 1006.41 1006.18 1005.93 1005.64 1005.33 1004.99 1004.64 1004.29 1003.95 1003.63
1012.12 1011.88 1011.71 1011.62 1011.60 1011.63 1011.70 1011.78 1011.86 1011.94 1011.99 1012.02 1012.01 1011.97 1011.90 1011.78 1011.63 1011.44 1011.22 1010.96 1010.66 1010.33 1009.98 1009.62 1009.25 1008.88 1008.53 1008.20 1007.89 1007.61 1007.35 1007.10 1006.86 1006.62 1006.36 1006.09 1005.79 1005.46 1005.11 1004.74 1004.36 1003.97 1003.58 1003.21
1012.83 1012.61 1012.46 1012.37 1012.34 1012.35 1012.39 1012.45 1012.50 1012.54 1012.56 1012.54 1012.50 1012.42 1012.30 1012.15 1011.96 1011.74 1011.48 1011.20 1010.88 1010.55 1010.19 1009.83 1009.46 1009.09 1008.73 1008.39 1008.06 1007.75 1007.46 1007.18 1006.90 1006.62 1006.33 1006.02 1005.69 1005.35 1004.98 1004.59 1004.19 1003.79 1003.38 1002.98
1013.50 1013.32 1013.19 1013.11 1013.08 1013.07 1013.08 1013.10 1013.12 1013.12 1013.10 1013.05 1012.96 1012.84 1012.69 1012.50 1012.28 1012.04 1011.76 1011.45 1011.12 1010.77 1010.41 1010.04 1009.66 1009.29 1008.92 1008.56 1008.22 1007.89 1007.57 1007.26 1006.96 1006.65 1006.34 1006.02 1005.69 1005.34 1004.97 1004.60 1004.20 1003.80 1003.40 1002.99
1014.10 1013.97 1013.86 1013.79 1013.75 1013.72 1013.71 1013.70 1013.68 1013.64 1013.58 1013.50 1013.38 1013.23 1013.05 1012.83 1012.59 1012.32 1012.02 1011.70 1011.35 1010.99 1010.62 1010.24 1009.85 1009.47 1009.09 1008.72 1008.36 1008.02 1007.69 1007.37 1007.05 1006.74 1006.43 1006.11 1005.79 1005.46 1005.12 1004.76 1004.40 1004.02 1003.63 1003.23
1014.60 1014.51 1014.43 1014.36 1014.31 1014.27 1014.23 1014.18 1014.13 1014.06 1013.97 1013.86 1013.72 1013.55 1013.35 1013.12 1012.86 1012.57 1012.25 1011.91 1011.55 1011.18 1010.79 1010.40 1010.00 1009.61 1009.22 1008.84 1008.48 1008.13 1007.80 1007.48 1007.16 1006.86 1006.57 1006.28 1005.99 1005.69 1005.38 1005.07 1004.74 1004.39 1004.04 1003.66
1014.99 1014.92 1014.85 1014.78 1014.72 1014.65 1014.59 1014.52 1014.44 1014.35 1014.25 1014.12 1013.96 1013.78 1013.58 1013.34 1013.07 1012.77 1012.44 1012.09 1011.72 1011.33 1010.92 1010.51 1010.10 1009.69 1009.30 1008.92 1008.55 1008.20 1007.88 1007.57 1007.28 1007.00 1006.73 1006.48 1006.22 1005.96 1005.70 1005.43 1005.14 1004.84 1004.52 1004.18
Thickness
5754 5767 5772 5771 5774 5777 5769 5763 5756 5763 5770 5784 5793 5798 5803 5807 5806 5806 5804 5803 5804 5803 5804 5804 5803 5801 5800 5797 5794 5790 5785 5780 5777 5775 5772 5767 5764 5761 5758 5755 5752 5749 5745 5742
5746 5764 5767 5767 5773 5777 5775 5775 5771 5770 5773 5793 5797 5799 5799 5800 5801 5800 5800 5801 5801 5802 5801 5801 5800 5799 5796 5793 5791 5787 5782 5777 5774 5771 5767 5763 5760 5756 5753 5749 5746 5743 5739 5736
5722 5746 5752 5743 5763 5770 5769 5773 5771 5763 5773 5787 5787 5790 5792 5794 5796 5798 5799 5800 5800 5799 5799 5799 5799 5797 5793 5791 5787 5783 5778 5774 5770 5766 5762 5759 5756 5751 5747 5743 5740 5736 5733 5731
5711 5723 5714 5742 5770 5774 5769 5769 5773 5776 5781 5785 5785 5788 5792 5794 5793 5794 5796 5797 5797 5798 5797 5797 5796 5794 5791 5787 5782 5778 5774 5770 5767 5762 5758 5753 5750 5746 5742 5738 5735 5731 5728 5725
5697 5700 5715 5742 5760 5762 5757 5753 5769 5771 5776 5780 5784 5782 5779 5789 5794 5793 5795 5795 5795 5795 5794 5792 5791 5789 5786 5781 5776 5772 5769 5766 5763 5759 5754 5749 5745 5742 5738 5734 5731 5727 5723 5720
5694 5695 5698 5727 5755 5768 5759 5738 5761 5765 5767 5771 5773 5755 5761 5780 5787 5789 5789 5790 5790 5789 5788 5786 5784 5782 5778 5774 5770 5767 5765 5763 5760 5756 5751 5747 5743 5739 5735 5731 5727 5723 5718 5715
5688 5690 5705 5734 5752 5757 5726 5728 5755 5761 5761 5763 5760 5760 5766 5773 5777 5780 5781 5783 5783 5782 5780 5778 5777 5775 5769 5766 5764 5764 5762 5758 5754 5750 5747 5744 5739 5735 5730 5726 5721 5717 5713 5709
5682 5682 5696 5735 5741 5732 5731 5745 5750 5754 5757 5757 5758 5761 5764 5766 5767 5769 5769 5771 5773 5773 5771 5772 5771 5768 5763 5761 5761 5759 5756 5752 5748 5745 5742 5739 5734 5729 5724 5720 5715 5710 5706 5703
5687 5692 5713 5728 5731 5736 5741 5740 5744 5747 5749 5752 5751 5751 5752 5754 5756 5758 5759 5761 5762 5762 5761 5761 5761 5760 5756 5756 5755 5752 5749 5745 5742 5739 5736 5734 5729 5724 5719 5714 5709 5704 5700 5696
5688 5699 5710 5719 5727 5732 5737 5738 5741 5744 5745 5744 5741 5742 5743 5744 5745 5746 5748 5750 5751 5751 5749 5749 5750 5751 5750 5749 5749 5745 5741 5737 5735 5731 5729 5726 5723 5719 5714 5709 5704 5700 5696 5692
5681 5692 5703 5711 5716 5723 5729 5732 5734 5736 5737 5736 5734 5732 5733 5733 5733 5734 5736 5738 5740 5739 5738 5739 5741 5741 5742 5741 5740 5736 5733 5730 5726 5724 5721 5718 5715 5712 5709 5707 5703 5698 5694 5691
5673 5685 5690 5696 5708 5715 5717 5720 5724 5726 5725 5726 5726 5725 5725 5724 5724 5724 5726 5728 5729 5728 5729 5730 5731 5732 5733 5733 5731 5728 5724 5722 5719 5717 5714 5710 5706 5702 5700 5698 5696 5693 5690 5686
5682 5687 5691 5697 5702 5705 5707 5711 5715 5716 5717 5716 5718 5720 5718 5716 5716 5716 5718 5719 5719 5720 5721 5722 5722 5722 5723 5724 5723 5720 5717 5715 5713 5710 5707 5703 5700 5696 5691 5688 5687 5685 5682 5680
5685 5685 5684 5690 5693 5698 5701 5703 5705 5706 5707 5708 5708 5708 5708 5706 5705 5706 5708 5710 5711 5712 5712 5712 5712 5712 5714 5714 5713 5711 5709 5707 5705 5702 5699 5696 5692 5689 5684 5680 5677 5674 5673 5671
5679 5682 5682 5685 5688 5690 5693 5694 5693 5693 5695 5696 5698 5697 5697 5695 5694 5696 5699 5701 5701 5701 5701 5702 5702 5702 5704 5703 5702 5700 5699 5697 5696 5694 5691 5688 5684 5680 5676 5673 5669 5666 5664 5662
5672 5674 5676 5677 5678 5682 5683 5683 5682 5683 5685 5686 5686 5686 5687 5687 5686 5687 5688 5690 5690 5689 5690 5691 5691 5692 5693 5692 5691 5689 5688 5688 5686 5683 5681 5678 5675 5672 5668 5665 5661 5657 5655 5653
5662 5663 5665 5667 5670 5672 5674 5674 5674 5675 5676 5676 5677 5677 5677 5677 5676 5676 5678 5680 5681 5681 5682 5681 5681 5683 5683 5682 5680 5679 5678 5676 5676 5673 5670 5668 5665 5663 5660 5656 5653 5649 5647 5644
5659 5661 5663 5664 5665 5665 5666 5667 5668 5667 5668 5669 5670 5669 5668 5667 5667 5668 5669 5670 5671 5671 5672 5672 5673 5673 5673 5672 5671 5669 5668 5667 5665 5663 5660 5658 5656 5653 5651 5648 5645 5642 5638 5635
5656 5658 5659 5660 5660 5660 5658 5659 5659 5660 5661 5662 5661 5660 5660 5660 5660 5660 5660 5660 5660 5659 5661 5663 5664 5663 5662 5662 5662 5660 5659 5657 5655 5654 5651 5649 5646 5644 5642 5640 5637 5634 5631 5627
5652 5653 5654 5655 5655 5654 5652 5652 5653 5652 5653 5653 5652 5651 5651 5651 5652 5651 5651 5650 5651 5652 5654 5655 5654 5653 5653 5653 5653 5651 5649 5647 5645 5643 5642 5639 5637 5634 5632 5631 5629 5626 5624 5621
5646 5647 5647 5647 5647 5648 5648 5648 5647 5645 5644 5644 5643 5642 5642 5643 5644 5643 5642 5641 5643 5645 5646 5646 5645 5644 5644 5644 5643 5641 5640 5638 5636 5633 5632 5630 5627 5625 5623 5622 5620 5618 5616 5613
5640 5640 5640 5640 5640 5639 5640 5640 5640 5638 5637 5636 5635 5635 5634 5634 5634 5634 5634 5634 5636 5637 5637 5637 5637 5636 5636 5635 5634 5632 5630 5629 5627 5625 5623 5621 5619 5616 5614 5613 5611 5609 5607 5604
5634 5635 5635 5635 5634 5632 5633 5633 5633 5632 5630 5629 5628 5627 5626 5626 5626 5625 5624 5627 5629 5629 5629 5629 5629 5629 5628 5627 5625 5623 5622 5620 5618 5616 5614 5612 5610 5608 5606 5604 5602 5601 5598 5596
5630 5630 5630 5629 5628 5627 5625 5626 5625 5625 5624 5623 5623 5622 5621 5620 5620 5621 5621 5622 5622 5622 5622 5621 5621 5621 5620 5618 5617 5615 5614 5612 5610 5608 5605 5603 5602 5600 5598 5596 5594 5592 5590 5588
5626 5625 5624 5623 5622 5620 5620 5620 5619 5618 5617 5616 5616 5617 5616 5616 5615 5615 5616 5616 5616 5615 5614 5614 5614 5613 5612 5611 5610 5608 5606 5605 5602 5599 5597 5595 5593 5591 5589 5587 5585 5583 5581 5579
5620 5619 5619 5618 5617 5616 5615 5614 5613 5612 5611 5609 5609 5610 5610 5609 5610 5609 5609 5609 5608 5607 5606 5605 5605 5605 5604 5603 5602 5600 5598 5597 5594 5592 5590 5587 5585 5583 5580 5578 5576 5574 5573 5571
5617 5615 5614 5613 5612 5612 5611 5609 5607 5606 5605 5604 5603 5604 5604 5603 5603 5602 5602 5601 5600 5599 5599 5598 5598 5597 5597 5595 5594 5592 5590 5589 5587 5585 5582 5580 5577 5574 5572 5570 5567 5566 5564 5562